Probability
0 0 0 0 0 0 0 0 0 0 0 0 0 0 0 0 0 0 0 0 0 0 0 0 0 0 0 0 0 0 0 0 0 0 0 0 0 0 0 0 0 0 0
0 0 0 0 0 0 0 0 0 0 0 0 0 0 0 0 0 0 0 0 0 0 0 0 0 0 0 0 0 0 0 0 0 0 0 0 0 0 0 0 0 0 0
0 0 0 0 0 0 0 0 0 0 0 0 0 0 0 0 0 0 0 0 0 0 0 0 0 0 0 0 0 0 0 0 0 0 0 0 0 0 0 0 0 0 0
0 0 0 0 0 0 0 0 0 0 0 0 0 0 0 0 0 0 0 0 0 0 0 0 0 0 0 0 0 0 0 0 0 0 0 0 0 0 0 0 0 0 0
0 0 0 0 0 0 0 0 0 0 0 0 0 0 0 0 0 0 0 0 0 0 0 0 0 0 0 0 0 0 0 0 0 0 0 0 0 0 0 0 0 0 0
0 0 0 0 0 0 0 0 0 0 0 0 0 0 0 0 0 0 0 0 0 0 0 0 0 0 0 0 0 0 0 0 0 0 0 0 0 0 0 0 0 0 0
0 0 0 0 0 0 0 0 0 0 0 0 0 0 0 0 0 0 0 0 0 0 0 0 0 0 0 0 0 0 0 0 0 0 0 0 0 0 0 0 0 0 0
0 0 0 0 0 0 0 0 0 0 0 0 0 0 0 0 0 0 0 0 0 0 0 0 0 0 0 0 0 0 0 0 0 0 0 0 0 0 0 0 0 0 0
0 0 0 0 0 0 0 0 0 0 0 0 0 0 0 0 0 0 0 0 0 0 0 0 0 0 0 0 0 0 0 0 0 0 0 0 0 0 0 0 0 0 0
0 0 0 0 0 0 0 0 0 0 0 0 0 0 0 0 0 0 0 0 0 0 0 0 0 0 0 0 0 0 0 0 0 0 0 0 0 0 0 0 0 0 0
0 0 0 0 0 0 0 0 0 0 0 0 0 0 0 0 0 0 0 0 0 0 0 0 0 0 0 0 0 0 0 0 0 0 0 0 0 0 0 0 0 0 0
0 0 0 0 0 0 0 0 0 0 0 0 0 0 0 0 0 0 0 0 0 0 0 0 0 0 0 0 0 0 0 0 0 0 0 0 0 0 0 0 0 0 0
0 0 0 0 0 0 0 0 0 0 0 0 0 0 0 0 0 0 0 0 0 0 0 0 0 0 0 0 0 0 0 0 0 0 0 0 0 0 0 0 0 0 0
0 0 0 0 0 0 0 0 0 0 0 0 0 0 0 0 0 0 0 0 0 0 0 0 0 0 0 0 0 0 0 0 0 0 0 0 0 0 0 0 0 0 0
0 0 0 0 0 0 0 0 0 0 0 0 0 0 0 0 0 0 0 0 0 0 0 0 0 0 0 0 0 0 0 0 0 0 0 0 0 0 0 0 0 0 0
0 0 0 0 0 0 0 0 0 0 0 0 0 0 0 0 0 0 0 0 0 0 0 0 0 0 0 0 0 0 0 0 0 0 0 0 0 0 0 0 0 0 0
0 0 0 0 0 0 0 0 0 0 0 0 0 0 0 0 0 0 0 0 0 0 0 0 0 0 0 0 0 0 0 0 0 0 0 0 0 0 0 0 0 0 0
0 0 0 0 0 0 0 0 0 0 0 0 0 0 0 0 0 0 0 0 0 0 0 0 0 0 0 0 0 0 0 0 0 0 0 0 0 0 0 0 0 0 0
0 0 0 0 0 0 0 0 0 0 0 0 0 0 0 0 0 0 0 0 0 0 0 0 0 0 0 0 0 0 0 0 0 0 0 0 0 0 0 0 0 0 0
0 0 0 0 0 0 0 0 0 0 0 0 0 0 0 0 0 0 0 0 0 0 0 0 0 0 0 0 0 0 0 0 0 0 0 0 0 0 0 0 0 0 0
0 0 0 0 0 0 0 0 0 0 0 0 0 0 0 0 0 0 0 0 0 0 0 0 0 0 0 0 0 0 0 0 0 0 0 0 0 0 0 0 0 0 0
0 0 0 0 0 0 0 0 0 0 0 0 0 0 0 0 0 0 0 0 0 0 0 0 0 0 0 0 0 0 0 0 0 0 0 0 0 0 0 0 0 0 0
0 0 0 0 0 0 0 0 0 0 0 0 0 0 0 0 0 0 0 0 0 0 0 0 0 0 0 0 0 0 0 0 0 0 0 0 0 0 0 0 0 0 0
0 0 0 0 0 0 0 0 0 0 0 0 0 0 0 0 0 0 0 0 0 0 0 0 0 0 0 0 0 0 0 0 0 0 0 0 0 0 0 0 0 0 0
0 0 0 0 0 0 0 0 0 0 0 0 0 0 0 0 0 0 0 0 0 0 0 0 0 0 0 0 0 0 0 0 0 0 0 0 0 0 0 0 0 0 0
0 0 0 0 0 0 0 0 0 0 0 0 0 0 0 0 0 0 0 0 0 0 0 0 0 0 0 0 0 0 0 0 0 0 0 0 0 0 0 0 0 0 0
Wind_Speed
10 10 10 9 9 9 9 8 7 7 6 6 6 6 6 6 6 5 5 4 4 3 4 4 4 4 3 4 4 4 5 5 10 10 8 9 11 13 13 12 12 12 12
10 10 10 9 10 10 9 8 7 7 6 6 6 6 6 6 5 5 4 4 4 4 4 5 6 5 6 5 5 6 6 7 8 13 11 10 12 12 13 13 11 10 10
9 10 10 10 10 9 8 7 7 7 6 6 6 6 5 4 4 4 3 3 3 4 5 6 7 7 7 7 7 7 7 7 7 10 12 10 9 10 11 11 12 10 10
9 10 10 9 8 7 7 6 6 6 6 5 5 4 3 3 3 3 3 3 4 5 6 6 7 7 9 9 8 8 8 8 9 9 10 10 9 9 8 8 9 8 9
9 9 8 7 7 7 7 6 6 6 6 5 4 4 3 2 2 3 3 4 6 7 8 8 8 11 12 9 8 8 8 8 8 8 9 9 9 8 8 7 9 8 9
9 8 7 7 7 7 6 6 6 6 5 5 4 4 4 3 5 7 6 4 6 7 9 9 9 10 11 14 15 15 14 11 10 9 8 10 11 10 8 8 8 8 6
8 7 7 6 7 6 6 6 6 5 4 5 4 4 4 4 7 8 10 6 7 7 8 9 8 8 11 9 12 15 15 16 15 11 11 11 11 10 10 9 8 8 8
6 6 6 6 6 6 6 5 4 3 4 3 3 4 3 5 8 9 12 8 7 8 9 9 9 10 9 10 11 11 11 11 12 9 9 10 10 9 9 8 8 8 8
6 5 5 5 5 5 5 4 3 3 3 3 3 4 4 5 8 10 11 7 7 9 10 9 9 9 12 13 11 11 12 11 11 12 13 12 13 13 10 6 6 6 6
4 4 4 4 5 4 4 3 3 2 3 3 4 4 4 5 9 10 11 5 7 8 9 9 11 11 14 14 10 9 10 10 11 11 10 10 9 9 9 6 5 6 5
4 4 4 4 3 3 3 2 3 3 3 4 5 5 5 6 9 11 12 6 6 8 8 8 8 13 15 15 11 8 10 11 9 9 8 7 7 6 6 5 5 5 5
4 4 3 2 2 2 3 3 3 3 3 4 5 6 5 6 7 10 13 12 10 7 7 7 8 14 15 13 10 11 13 10 6 6 6 6 6 6 6 6 6 5 5
3 2 2 2 2 2 2 2 2 2 2 3 4 5 6 6 7 11 12 14 15 8 7 12 13 13 12 9 10 13 10 6 6 6 6 6 5 6 6 6 6 6 5
2 1 0 1 2 2 1 1 1 1 2 3 4 5 6 7 6 8 8 9 11 9 8 10 12 11 9 9 9 8 6 6 6 6 6 6 5 5 5 5 4 5 5
1 0 0 1 1 1 1 1 1 2 2 2 3 4 6 7 8 12 9 7 7 8 8 5 5 7 7 7 7 7 6 6 6 5 5 6 6 6 5 5 5 5 5
0 0 0 0 0 1 1 2 3 3 5 5 5 5 5 7 11 12 13 12 12 12 6 5 6 7 7 7 7 7 6 7 6 6 5 5 6 6 6 5 5 6 6
1 1 0 0 0 0 1 2 3 5 5 5 7 7 7 10 10 11 13 13 9 9 5 5 6 7 7 7 7 7 7 7 6 5 5 5 5 6 6 6 7 6 6
1 1 1 1 0 0 1 1 1 2 4 4 5 7 10 11 11 11 11 9 6 6 5 6 6 7 7 7 7 7 7 7 6 6 5 5 5 5 5 6 7 8 7
1 1 1 1 1 1 1 1 1 2 3 4 5 6 9 10 9 8 8 5 5 6 6 6 6 7 7 7 7 7 7 6 6 6 5 6 6 5 6 6 6 9 8
1 2 2 2 1 1 1 1 1 2 3 4 4 5 6 6 5 6 5 5 5 5 6 6 7 7 7 7 7 7 7 6 7 6 5 5 5 5 6 8 7 7 7
1 1 3 2 1 1 1 1 1 2 3 3 4 5 8 4 5 6 5 5 5 5 6 6 6 7 7 7 7 8 8 6 6 6 5 5 5 5 6 6 7 7 7
2 2 2 2 1 1 1 1 1 2 3 4 4 5 8 5 5 5 5 5 5 5 5 6 6 5 6 7 7 7 7 7 6 6 5 5 4 5 6 6 7 7 8
3 3 3 2 2 2 2 1 1 2 2 3 4 5 5 5 5 5 6 6 6 6 6 6 6 6 7 6 6 5 6 6 5 5 4 4 4 5 5 7 8 8 8
3 3 3 2 2 2 2 2 2 2 3 3 4 4 5 5 5 6 6 6 6 6 6 6 6 9 12 9 6 5 5 6 5 3 2 3 4 5 5 6 6 7 7
3 3 3 2 2 2 2 2 2 3 3 3 4 4 5 5 6 6 6 6 7 7 9 8 7 8 11 12 10 9 9 8 5 3 2 3 5 5 5 6 5 5 6
3 3 3 2 2 2 2 2 2 3 3 4 4 4 5 5 6 6 6 7 7 7 8 7 10 12 12 10 11 11 9 8 7 5 3 4 5 4 4 4 5 4 5
Wind_Direction
75 79 82 81 83 84 84 84 84 82 84 87 89 86 80 75 75 77 72 58 50 27 10 354 333 319 307 303 294 285 275 270 285 295 287 285 282 282 286 285 282 279 276
76 78 77 76 76 77 77 76 79 80 79 86 90 90 88 84 77 74 62 48 31 8 348 334 323 319 307 298 291 286 281 272 279 296 299 295 286 283 283 283 284 281 277
77 78 76 74 74 73 72 72 74 77 77 80 87 90 90 87 77 65 55 32 7 342 326 317 312 311 304 299 293 286 283 284 279 288 296 294 290 287 288 284 284 281 280
79 78 76 74 76 76 74 72 72 77 80 80 83 83 81 72 59 41 23 2 343 330 320 310 305 299 291 292 291 289 290 291 290 289 292 295 293 289 285 289 291 286 284
81 79 78 76 76 75 72 69 68 68 74 78 77 64 47 44 33 18 358 346 336 328 322 315 308 304 305 308 309 307 304 298 296 293 294 296 295 298 296 290 290 291 285
81 79 79 78 76 73 71 67 66 62 60 60 53 41 27 23 14 12 2 340 329 322 319 318 313 307 312 315 313 312 309 304 303 297 298 299 301 299 295 294 294 295 291
78 77 77 79 76 69 71 66 61 55 54 48 35 28 17 3 13 6 355 345 326 317 313 313 312 311 314 308 310 312 307 301 297 297 297 299 300 302 298 295 293 295 292
78 79 80 80 78 70 66 59 50 44 42 31 24 16 7 360 3 358 350 343 324 316 312 307 306 309 312 318 317 310 306 303 299 295 288 292 294 296 295 294 295 293 286
77 79 81 84 81 69 60 48 37 38 32 20 10 8 2 346 349 350 353 334 325 322 318 316 315 315 315 319 319 312 310 309 309 301 294 291 292 293 295 297 297 301 305
79 84 81 80 82 75 64 48 34 41 30 17 11 1 352 340 337 345 350 335 327 324 320 320 319 317 317 320 317 310 311 315 316 316 313 308 304 302 303 297 298 300 303
82 84 77 73 82 83 69 53 49 45 31 15 1 346 343 339 336 340 345 342 328 320 318 319 317 318 319 319 317 307 304 309 309 311 312 311 312 312 313 309 296 291 295
79 78 70 56 60 91 87 66 50 41 28 9 356 349 343 339 337 337 339 339 334 319 313 313 312 316 320 321 321 317 318 319 315 319 321 321 323 326 322 316 307 297 284
84 78 69 59 49 74 95 77 47 31 21 2 356 347 339 337 335 337 337 335 336 332 315 315 320 325 328 326 323 325 328 328 327 330 333 334 329 326 325 323 322 321 309
100 86 87 67 46 53 68 80 51 1 357 350 345 340 335 334 338 342 337 332 332 333 327 322 323 326 331 327 327 330 333 330 332 337 338 333 332 337 343 342 336 339 340
130 299 344 35 62 46 21 302 294 264 261 305 314 317 326 329 328 327 329 329 328 325 322 325 338 340 343 342 339 338 339 345 347 349 348 350 351 354 354 349 351 355 4
136 318 331 3 24 31 1 344 330 317 323 321 313 314 307 305 317 329 335 335 335 337 342 343 341 340 338 338 341 343 346 352 352 351 353 358 2 4 5 5 8 14 18
203 241 236 272 230 8 14 360 343 343 353 353 345 344 339 333 336 340 341 337 339 350 356 345 341 337 338 342 345 346 345 345 348 353 358 2 4 8 11 15 16 18 22
219 226 176 181 160 95 42 15 351 343 343 340 336 338 344 343 342 346 345 346 352 357 350 343 340 338 340 344 345 343 342 345 351 357 3 6 9 10 18 23 24 23 24
203 192 157 142 119 99 70 37 5 353 344 336 337 341 342 339 338 348 353 358 347 346 346 344 340 339 340 341 341 342 342 343 348 353 4 9 13 19 26 29 30 26 29
221 187 156 138 115 96 69 32 7 357 348 345 346 344 338 340 348 347 349 347 348 346 344 342 339 340 339 339 340 342 344 347 350 356 2 11 20 32 38 39 38 37 36
173 152 137 117 111 113 92 30 356 349 346 345 342 341 350 344 345 343 345 348 348 344 341 338 337 339 341 340 341 342 345 347 351 355 1 13 27 39 46 49 48 47 47
137 127 114 109 103 100 96 55 14 2 356 354 346 347 355 359 352 349 349 349 345 340 339 337 336 339 337 335 335 337 339 344 351 355 0 14 32 44 51 54 53 52 53
115 111 99 88 85 90 80 50 25 12 5 1 356 358 359 359 356 354 353 350 347 347 348 348 345 344 342 334 330 328 329 330 329 332 351 21 40 48 54 58 61 63 59
104 104 100 93 85 78 66 45 31 26 19 12 6 2 359 357 357 356 353 350 348 348 351 351 348 344 345 344 339 337 333 324 321 335 16 54 61 61 64 66 66 68 67
95 95 92 88 87 79 70 58 44 34 26 18 10 4 359 359 358 356 353 351 350 350 352 353 350 347 346 346 347 344 338 340 353 11 54 72 74 72 73 73 72 73 70
88 88 84 81 81 80 78 68 55 47 36 25 15 7 2 0 357 355 353 354 351 349 350 351 350 351 351 350 347 343 345 358 13 27 53 74 75 74 78 76 76 72 70